Theta_e
344 339 335 332 332 332 333 334 334 333 333 337 340 343 346 346 339 330 324 320 318 317 317 317 318 318 317 315 315 315 316 318 320 322 324 324 323 321 321 322 321 320 321 322 322 323 323 324 324 324 325 324 322 322 322 322 322 323 324 324 324 324 325 326 328 326 323 323 325 323 320 320 320 320 318 317 318 318 318 318 318 317 317 318 318
345 342 338 335 333 331 332 334 334 334 334 338 343 346 347 343 332 324 322 320 318 317 317 318 319 317 316 315 314 315 317 319 322 324 326 325 323 322 322 322 322 322 323 324 324 324 324 325 325 325 324 322 321 321 322 322 322 322 323 323 323 323 323 323 324 325 323 322 323 323 322 321 319 318 318 318 318 318 318 317 317 317 317 318 318
345 343 342 339 335 333 332 332 334 337 339 344 348 348 346 340 328 320 320 319 316 316 316 318 319 317 315 314 315 316 318 320 323 326 326 325 324 322 322 322 323 324 325 324 325 325 325 325 325 324 323 322 322 323 324 323 324 324 324 324 324 323 323 323 323 324 324 323 322 323 323 322 320 318 318 318 319 318 318 317 318 318 318 318 318
346 345 344 342 340 337 334 335 338 340 342 344 347 347 347 346 336 323 319 318 316 316 316 317 318 317 315 315 317 318 319 321 323 325 325 325 323 321 322 323 324 325 325 324 324 325 326 325 323 323 323 324 325 325 325 325 325 325 325 325 325 325 324 324 324 324 325 325 323 322 321 322 323 321 319 319 319 318 318 318 318 318 318 318 318
347 346 346 346 344 341 341 344 342 338 337 338 342 346 347 348 342 327 319 319 318 315 316 317 317 317 316 317 319 320 320 321 323 324 324 323 322 321 322 323 324 325 324 323 323 325 325 323 321 322 324 325 326 326 326 326 325 326 326 326 326 326 326 326 325 325 325 325 324 322 320 321 324 324 322 322 322 319 318 319 319 319 319 319 319
347 348 348 348 347 347 348 349 342 333 332 333 337 343 345 347 345 332 320 319 318 315 316 317 317 317 317 319 320 320 320 321 322 323 323 322 321 321 322 323 325 325 323 322 323 323 323 321 321 323 324 325 326 326 326 326 326 326 326 326 326 326 326 326 326 326 324 324 323 323 322 321 323 325 325 324 323 321 319 319 320 321 321 321 320
348 348 349 350 352 352 350 348 340 331 328 329 332 336 340 345 344 331 323 321 317 317 320 318 317 317 318 319 320 320 321 321 322 323 323 323 322 321 322 324 325 324 322 322 323 322 321 321 322 324 325 326 327 326 326 326 326 325 325 325 325 325 325 325 325 325 324 324 323 322 322 321 322 324 324 323 323 322 323 323 323 324 324 324 323
349 350 353 354 355 354 351 348 344 336 328 328 331 333 334 341 340 329 323 323 318 318 323 321 319 319 319 319 320 321 322 322 323 324 324 323 322 321 321 322 324 324 322 322 322 322 322 322 323 324 326 326 326 326 326 326 326 325 323 322 321 322 322 322 324 324 324 323 322 321 321 321 321 322 322 323 323 324 325 325 325 324 324 324 324
352 354 356 356 355 355 353 352 351 347 339 332 331 335 337 341 341 330 323 323 319 318 322 322 320 320 320 320 321 322 323 323 323 324 323 322 322 321 320 322 324 324 323 322 322 322 322 323 324 325 326 326 326 326 326 326 326 324 322 320 319 320 321 322 323 324 324 323 322 321 321 322 321 321 322 324 324 324 324 324 324 324 323 323 324
354 356 357 357 356 356 355 354 353 351 347 338 330 333 338 343 345 338 326 322 320 318 320 323 321 320 321 322 321 322 323 323 323 323 322 322 322 322 321 322 324 324 323 323 323 322 323 324 325 326 326 326 326 326 326 326 326 325 322 320 319 320 321 323 323 323 324 323 322 322 323 323 322 322 323 324 324 324 324 324 324 323 323 323 323
355 356 357 357 357 356 356 356 354 352 348 342 334 331 332 336 344 345 334 324 322 320 321 323 321 318 321 323 322 322 323 324 325 324 322 323 323 321 322 323 324 325 324 324 324 324 324 325 327 327 327 327 326 326 326 325 325 325 322 319 319 320 321 323 324 324 324 325 324 323 323 324 323 323 324 324 324 324 323 323 323 323 323 323 323
353 355 357 357 357 357 356 355 356 351 345 342 340 336 331 328 335 345 342 328 322 323 323 323 321 319 323 325 324 324 324 324 327 326 323 323 323 322 322 323 325 325 325 325 325 326 327 328 329 328 328 327 326 326 325 325 325 325 322 319 319 319 320 321 323 323 325 326 325 324 323 323 323 323 324 324 323 323 322 322 322 323 323 322 323
353 354 356 357 356 356 356 355 354 351 346 343 343 342 339 333 330 337 340 329 322 324 324 322 321 322 325 324 324 326 326 325 328 327 324 322 323 323 324 325 326 327 327 328 330 330 331 332 330 329 328 327 326 326 325 325 325 324 322 321 320 319 319 319 319 319 321 322 325 325 324 323 323 323 323 323 323 323 322 322 322 322 322 322 322
352 353 355 356 356 356 356 355 353 354 352 350 345 342 343 340 333 334 336 330 327 328 325 321 323 324 322 320 323 326 325 324 327 329 326 324 323 324 327 328 329 330 331 332 332 331 332 332 331 329 328 327 325 325 325 325 324 323 322 322 321 319 318 317 316 316 318 321 323 324 323 323 323 323 322 322 322 322 321 321 322 321 321 321 320
349 351 353 355 355 355 356 355 355 355 354 352 348 345 344 343 338 337 335 331 331 329 325 322 324 324 319 317 320 322 319 323 329 331 329 327 324 325 328 330 331 332 332 332 331 330 331 332 330 328 326 326 325 325 325 324 323 323 322 321 320 319 318 316 315 316 319 321 322 322 322 322 322 322 321 321 321 321 321 321 321 320 320 320 320
344 347 350 352 353 354 354 354 354 354 353 352 350 347 344 343 341 337 333 332 331 327 324 323 324 324 321 318 319 319 320 327 331 331 330 329 328 328 329 330 331 332 332 330 329 330 331 331 329 327 326 325 325 325 325 324 323 323 321 320 319 318 317 316 316 316 318 320 321 321 321 321 321 321 320 320 321 321 320 320 319 319 319 319 319
341 343 346 349 350 351 353 353 353 353 352 351 350 349 345 342 340 336 333 332 328 324 323 323 324 327 326 321 318 319 322 326 328 328 331 332 331 330 331 331 332 332 331 329 329 330 330 328 327 326 325 325 325 325 324 324 322 321 320 319 319 317 315 316 318 319 319 319 320 320 320 320 320 320 320 321 321 320 319 318 318 318 317 318 318
337 340 344 347 348 350 351 351 352 352 351 349 348 347 343 339 337 335 333 330 326 324 325 324 323 324 324 321 319 320 323 326 328 330 334 335 333 332 333 332 332 331 330 329 329 330 329 327 326 326 325 325 325 324 324 323 321 320 319 318 316 314 315 318 320 320 319 318 318 318 318 319 320 320 320 321 320 319 317 316 315 315 314 314 314
337 341 344 346 347 349 349 349 350 349 348 347 346 343 340 337 336 335 332 330 327 326 324 322 321 322 322 321 319 320 323 326 328 332 335 334 332 332 333 333 332 331 330 329 329 329 327 326 326 325 325 324 324 324 323 321 321 320 318 316 313 313 317 318 318 318 317 316 316 317 318 319 319 319 320 319 319 318 316 314 312 311 310 310 310
340 342 343 344 346 347 347 348 348 348 347 346 345 342 339 337 335 334 332 328 326 324 322 320 320 322 322 321 320 323 328 330 331 333 335 335 333 332 333 333 332 330 330 329 328 327 326 326 325 324 324 323 323 322 321 321 320 319 316 313 312 314 316 317 316 316 315 314 315 316 316 317 317 318 318 318 318 317 314 312 310 309 309 308 308
341 340 341 342 344 345 345 345 346 346 346 345 343 341 338 335 334 332 328 326 325 324 321 321 324 325 325 325 326 329 332 333 333 333 334 334 334 334 333 332 330 330 330 328 326 325 324 324 323 322 322 322 322 321 321 320 320 317 313 311 312 314 315 315 315 315 314 315 315 315 315 315 315 315 316 317 317 315 312 311 311 311 309 308 307
339 339 340 342 343 342 342 343 344 344 344 344 341 338 336 334 333 330 326 325 325 324 323 325 327 329 330 330 332 333 333 333 333 332 333 333 333 332 331 330 328 328 327 324 322 321 321 320 320 320 321 321 320 320 321 320 319 315 311 310 311 314 315 315 315 314 315 315 315 314 314 314 314 314 315 315 315 313 311 311 311 311 310 307 307
339 339 342 343 341 340 340 342 343 343 343 342 340 337 335 332 330 328 326 325 324 325 326 328 329 331 332 333 333 333 334 334 334 334 333 332 331 329 329 328 326 325 322 320 319 318 318 318 319 319 320 320 320 321 321 319 316 312 309 310 312 314 314 314 314 314 315 315 314 314 314 314 314 314 313 313 312 311 311 311 312 312 310 307 307
339 341 343 342 340 339 340 341 342 342 341 340 337 336 334 331 329 328 328 326 325 326 327 330 331 332 333 333 331 330 332 334 334 333 332 331 329 328 327 325 323 321 318 317 317 317 318 318 318 319 319 320 320 320 319 316 312 309 310 312 314 314 314 314 314 314 314 314 313 313 313 313 312 311 310 309 309 310 310 311 311 310 308 307 308
339 342 343 341 340 339 341 341 341 340 339 338 336 334 332 331 331 331 329 327 327 328 330 331 331 331 331 331 329 330 332 333 332 331 330 329 328 326 323 321 319 318 317 316 317 317 318 318 318 319 319 320 320 319 316 312 310 310 312 313 313 313 313 314 314 313 313 313 312 311 311 310 309 308 308 309 310 310 309 308 307 306 305 306 311
339 341 342 341 340 340 340 341 340 339 339 337 335 332 331 332 332 330 328 327 329 331 331 330 329 329 328 326 326 330 333 331 329 329 329 328 325 322 320 319 318 317 316 317 317 318 317 318 318 319 320 319 318 316 312 310 310 312 313 313 312 312 313 313 313 312 312 311 309 308 308 308 308 308 309 309 309 307 305 303 303 304 305 308 314
339 342 342 341 340 340 340 339 339 339 337 333 330 328 328 329 328 327 327 329 330 329 328 327 326 325 324 325 327 330 330 330 329 329 327 324 322 319 318 317 317 316 317 317 318 318 317 318 319 319 319 318 315 312 310 311 312 313 312 312 312 312 312 312 311 310 309 308 307 307 307 308 309 309 308 307 304 303 302 302 302 303 306 312 318
341 342 340 339 339 339 339 339 339 338 334 330 329 330 330 330 329 329 329 329 327 326 324 324 324 324 325 327 328 328 328 329 329 327 323 321 319 318 317 317 317 317 317 318 318 318 318 318 319 319 318 316 313 311 311 313 313 312 311 311 312 312 311 310 309 307 306 306 306 307 308 308 308 307 304 302 301 301 301 301 302 305 310 316 320
341 339 338 338 338 338 338 338 337 336 332 328 330 332 332 332 333 331 329 327 325 324 323 322 324 327 328 328 327 327 328 329 326 323 321 320 319 318 318 317 317 318 318 318 318 318 318 319 319 318 316 314 313 313 313 313 312 311 311 312 311 310 309 308 307 306 306 307 307 307 307 306 304 302 300 299 299 300 300 302 304 308 314 318 320
336 335 335 336 336 337 337 337 337 336 333 330 331 332 332 331 331 329 326 325 323 322 321 323 327 329 328 326 325 327 329 327 324 321 320 320 319 318 318 318 317 318 318 318 318 318 319 318 318 316 315 314 314 314 313 312 311 311 311 310 310 309 308 307 307 307 307 307 306 305 303 302 300 298 297 298 298 299 300 303 308 312 316 318 319
331 331 333 333 333 334 334 334 335 336 334 333 334 332 330 329 327 325 324 323 321 321 323 325 328 328 326 326 326 326 327 325 322 321 321 320 319 319 318 318 318 318 317 317 318 318 318 317 316 315 314 314 313 312 311 311 311 310 310 309 309 309 308 307 307 307 306 305 303 301 299 298 297 296 297 297 298 300 302 305 310 314 316 317 319
329 329 330 329 330 330 331 331 333 334 334 335 333 330 328 327 325 324 323 321 320 322 325 327 327 327 326 326 326 326 325 324 322 321 321 320 320 318 318 318 317 317 316 315 316 316 316 315 315 314 313 312 312 311 310 310 310 309 309 309 309 308 307 307 306 305 303 301 299 297 297 296 296 296 296 296 298 301 303 306 311 315 316 317 319
329 328 328 328 327 327 328 328 328 330 332 332 330 328 327 326 324 323 324 322 320 322 326 327 327 327 326 325 325 325 324 323 322 322 321 320 319 318 317 317 315 313 312 311 312 314 314 314 313 313 313 311 310 310 310 309 309 309 309 309 308 307 306 305 304 301 299 298 297 296 296 296 296 296 296 296 298 302 304 307 312 315 316 317 318
328 327 327 327 327 326 326 326 327 327 328 328 327 326 326 325 324 325 325 323 321 323 326 327 327 327 327 326 325 324 323 322 322 322 321 320 318 316 315 313 311 310 310 309 311 313 314 313 312 313 312 311 310 309 309 309 309 309 308 307 306 306 304 302 300 298 297 296 295 295 296 296 295 296 296 296 298 301 304 308 312 315 316 317 318
327 327 327 327 328 327 325 325 325 326 325 326 326 325 325 324 323 323 323 323 322 324 326 327 327 327 326 326 325 324 323 322 322 321 320 319 317 315 314 312 311 311 311 311 311 313 313 312 312 312 311 310 309 309 309 309 308 307 306 306 305 303 300 298 297 296 296 295 295 295 296 295 295 295 295 296 297 299 303 308 312 315 317 317 317
328 326 326 327 328 327 325 324 325 325 324 324 324 324 323 322 321 322 323 324 325 326 326 326 326 325 325 324 324 323 322 322 321 320 318 316 315 314 313 313 312 312 312 311 311 312 312 312 312 310 309 308 308 308 308 308 307 306 305 304 302 299 297 296 295 295 295 295 295 295 295 295 295 295 295 296 296 298 302 307 312 315 316 317 317
328 327 327 328 327 325 324 323 324 324 323 324 324 324 324 324 324 325 326 327 326 325 325 325 324 323 323 323 323 322 322 322 320 318 317 315 314 313 313 312 312 311 311 311 311 311 312 311 310 308 308 307 307 307 307 306 306 306 305 302 298 296 295 295 295 295 295 295 295 295 295 295 295 295 295 295 296 297 300 306 311 314 316 317 317
329 329 328 327 326 324 324 324 324 324 325 326 327 327 328 328 328 328 328 327 326 325 324 324 323 323 323 322 322 322 322 320 319 317 316 315 314 313 313 313 312 311 310 310 311 311 310 309 308 307 307 307 307 307 306 306 306 305 302 298 295 295 295 295 295 295 295 295 295 295 295 295 295 295 295 295 296 296 299 304 309 313 315 317 317
329 330 328 326 325 325 326 326 326 327 327 328 328 328 328 328 328 327 326 326 325 324 324 324 323 323 322 322 322 322 321 319 317 316 315 315 314 314 314 313 312 311 310 310 310 310 309 308 308 308 307 307 306 306 306 306 305 303 298 295 295 295 295 295 295 295 295 295 295 295 295 295 295 295 295 295 296 296 297 301 307 311 314 316 316
330 329 327 325 324 325 326 327 327 327 327 327 327 327 327 327 326 326 325 325 324 324 324 324 323 323 322 321 322 322 320 318 316 316 315 315 315 315 314 314 312 311 310 310 310 309 309 308 308 307 306 306 305 305 304 304 302 298 295 294 295 295 295 295 295 295 295 296 295 295 296 295 295 295 295 295 295 295 296 299 304 308 312 314 315
329 327 325 324 324 324 325 325 325 325 325 326 326 326 326 325 325 325 325 324 324 324 324 324 323 322 321 321 321 320 318 317 316 316 315 315 315 315 315 314 312 310 308 308 309 309 308 307 306 305 305 304 303 302 301 300 297 295 294 295 295 295 295 295 295 295 295 295 295 296 296 295 295 295 295 294 295 295 296 297 300 305 309 312 314
328 326 325 323 323 323 323 323 324 324 325 326 326 325 324 323 322 322 322 322 322 322 323 323 323 322 321 321 321 319 318 317 317 316 316 316 315 315 315 314 311 309 307 307 307 308 307 307 305 304 303 302 300 299 298 296 294 294 295 295 295 295 295 295 295 295 295 295 295 295 296 296 296 295 295 295 295 295 295 296 298 301 305 310 312
328 327 326 325 325 325 324 325 325 326 326 326 325 324 323 322 321 320 320 320 320 321 322 322 321 321 321 321 320 319 318 318 317 317 316 316 315 315 315 313 310 307 306 306 306 307 306 305 304 303 302 300 298 296 295 294 294 294 295 295 295 295 295 294 294 295 295 295 295 295 295 296 296 295 295 295 294 294 295 296 297 298 302 307 310
328 328 327 327 326 326 326 327 327 326 326 325 323 322 321 320 320 320 321 321 321 321 322 321 321 321 321 320 319 318 318 317 317 317 316 316 315 314 313 311 308 306 305 306 306 306 306 304 303 302 301 298 296 294 294 294 294 294 295 295 295 294 294 294 294 294 294 295 295 295 295 295 295 296 295 295 294 294 295 296 296 297 300 304 308
327 327 327 325 324 325 326 327 326 325 324 322 321 320 320 319 319 320 320 321 321 321 321 321 320 319 319 318 318 318 317 317 316 317 316 315 315 313 312 309 306 305 305 306 306 306 305 303 302 302 300 297 294 293 294 294 294 294 294 294 294 294 294 294 294 294 294 295 294 294 295 295 295 295 295 295 294 295 296 296 296 296 299 303 307
323 322 322 322 324 325 325 324 323 322 321 320 319 318 318 318 318 318 318 319 320 320 320 320 319 319 318 318 318 318 317 317 316 316 316 315 314 312 309 306 305 304 304 305 306 305 304 303 303 302 299 296 293 293 294 294 294 294 294 294 294 294 294 294 294 294 294 294 294 294 294 294 295 295 295 295 294 294 295 296 296 296 298 302 306
320 320 321 322 323 323 322 320 319 319 318 317 317 316 315 315 314 315 316 317 318 318 319 319 319 318 318 318 318 318 317 317 316 316 315 314 313 310 307 305 305 304 304 304 305 305 304 303 303 301 299 296 294 294 294 294 294 294 294 294 294 294 294 294 294 294 294 294 294 294 294 294 294 295 295 295 294 294 295 296 296 296 296 299 303
322 322 322 321 320 319 318 317 317 316 316 316 315 314 314 313 312 313 314 315 315 315 316 316 316 316 316 316 317 317 317 317 316 316 315 313 311 307 306 305 305 304 303 304 305 305 304 303 302 300 298 296 295 294 294 294 294 294 295 295 295 295 295 295 294 294 294 294 294 293 293 294 294 295 295 295 294 294 294 295 296 296 295 297 298
321 320 319 318 317 316 316 316 316 315 315 315 314 314 313 313 312 312 313 313 313 314 314 313 314 315 315 315 316 316 316 316 316 315 314 312 309 307 305 305 305 304 303 304 305 304 303 302 301 300 297 296 295 295 295 295 295 295 295 295 295 295 295 295 295 295 294 294 293 293 293 293 294 294 294 294 294 294 294 294 295 295 295 295 296
317 316 315 315 314 314 314 314 314 314 314 314 315 315 314 314 314 313 313 313 314 315 314 313 313 314 314 315 315 315 315 315 314 314 313 311 309 307 306 306 305 304 303 303 304 303 303 302 301 299 297 296 295 295 296 296 296 296 296 296 296 296 296 296 296 295 294 293 293 293 293 293 294 294 294 294 294 294 294 294 294 295 296 295 295
312 312 312 311 311 311 311 310 310 310 310 311 312 312 313 313 313 313 313 313 313 313 314 313 313 314 314 314 314 315 315 315 314 313 313 312 310 308 306 306 305 304 303 303 303 303 303 302 301 299 297 296 296 296 296 296 296 296 296 296 296 296 296 296 296 295 294 293 293 292 292 293 293 294 294 294 293 293 294 294 294 295 296 297 296
Wind_Speed
44 44 44 44 43 42 41 41 40 39 37 34 32 29 25 22 20 19 20 21 21 21 21 21 20 19 18 17 18 18 18 17 17 16 14 14 14 14 13 13 14 14 13 13 13 14 15 15 15 14 13 13 12 12 12 12 13 14 14 15 15 16 16 18 21 26 28 24 23 25 25 23 22 21 22 24 25 25 26 26 26 26 25 26 27
45 45 46 45 44 44 43 43 42 40 39 36 33 30 27 23 21 21 22 22 21 22 22 22 20 20 19 19 19 20 20 19 18 16 15 14 13 13 13 12 12 12 12 13 13 14 14 15 14 13 12 12 12 12 13 13 14 15 15 15 16 16 17 18 19 22 26 27 25 25 24 24 24 22 22 25 26 26 28 28 28 28 27 26 28
45 46 46 45 45 45 45 44 43 41 39 37 35 33 29 25 24 24 23 22 22 23 24 23 22 21 20 20 21 21 22 21 18 16 15 15 14 13 12 12 12 12 13 13 13 13 14 14 12 11 11 12 13 14 14 15 15 16 16 17 18 18 17 18 19 21 24 26 28 27 24 25 27 25 24 25 26 28 28 29 29 29 29 28 29
46 46 46 46 45 46 46 45 42 39 38 38 38 35 31 27 26 25 23 21 22 25 26 24 23 22 21 22 22 23 23 21 17 16 16 15 15 14 12 12 12 13 14 13 13 12 12 13 11 10 12 14 15 16 16 16 17 17 18 18 19 20 19 20 22 23 24 25 28 29 28 26 25 26 27 28 28 29 30 30 30 30 30 29 30
46 47 46 46 47 47 47 44 41 40 41 42 42 37 32 30 27 24 23 22 22 25 27 26 24 23 23 23 24 24 23 20 17 16 16 16 15 14 13 13 13 13 13 13 13 13 13 12 12 12 14 16 17 18 18 19 19 20 20 21 21 22 22 23 24 25 26 26 27 29 30 29 24 23 25 25 26 30 32 32 33 33 33 32 32
47 48 46 47 48 47 45 45 44 45 46 46 44 39 34 32 28 25 24 23 23 26 28 27 24 24 24 24 24 24 22 19 17 16 16 16 16 16 15 14 14 13 13 13 13 13 13 13 14 15 16 18 19 20 20 21 21 22 23 23 24 24 25 26 26 26 27 27 27 28 28 28 25 22 20 21 24 31 35 36 35 33 31 31 32
48 49 48 48 48 47 48 51 51 50 51 51 48 43 39 35 32 29 28 27 27 27 28 27 25 24 25 25 25 24 21 19 18 17 16 17 17 17 16 15 14 14 13 13 14 14 15 15 16 17 18 20 21 22 22 22 23 24 25 26 26 27 27 27 27 27 27 27 27 28 27 28 27 25 23 24 27 31 32 33 31 26 24 24 27
48 48 48 46 47 49 53 56 54 54 55 54 50 47 42 38 35 33 31 31 31 30 28 26 25 24 25 26 25 23 21 20 19 18 17 18 18 18 18 17 16 14 14 14 15 16 17 17 18 19 20 21 22 22 23 23 24 24 25 26 26 26 27 26 26 26 27 27 28 29 28 28 29 29 27 26 27 28 27 27 29 28 26 23 22
47 46 44 44 47 50 53 54 53 52 53 52 49 47 42 38 37 37 36 34 33 33 29 25 23 25 26 26 25 23 22 22 20 19 18 18 19 19 19 18 16 15 15 16 16 17 18 18 19 20 21 22 22 22 22 23 23 24 24 24 25 25 25 26 26 26 27 28 29 29 29 29 30 31 29 26 27 28 28 28 30 32 32 29 27
43 41 41 43 45 47 48 49 49 48 48 50 50 47 42 38 39 41 41 38 36 37 32 24 22 25 26 26 26 24 23 22 20 19 18 18 19 19 19 19 17 17 17 17 17 18 18 19 20 21 23 24 23 23 22 23 23 23 24 23 23 24 25 26 27 28 29 31 31 30 29 29 30 31 29 27 27 29 29 28 30 33 34 34 33
38 38 39 41 42 43 44 46 47 47 45 46 48 48 46 45 45 44 44 43 41 39 34 26 23 24 25 26 26 24 24 23 21 20 19 18 18 19 20 19 19 18 18 19 19 19 20 20 22 24 25 25 24 23 22 23 23 24 24 23 22 23 25 27 28 29 30 30 31 32 31 30 30 30 29 27 29 32 32 30 32 34 33 34 36
33 34 36 39 40 40 42 43 44 42 37 36 41 45 49 51 52 50 48 46 45 42 36 28 23 22 23 25 26 25 25 24 22 21 20 19 19 20 21 20 20 20 20 20 21 23 24 24 25 27 26 24 24 23 23 23 23 24 24 23 23 24 25 27 28 29 30 28 29 32 33 32 31 31 30 31 34 36 35 33 34 35 35 36 37
28 30 32 35 36 37 39 38 38 38 34 33 37 44 49 52 53 54 51 46 43 39 35 30 24 20 23 26 27 27 27 25 24 23 22 21 21 21 22 21 20 20 21 23 24 27 29 29 29 28 26 24 23 22 23 24 24 23 23 23 24 24 25 26 28 30 31 29 29 30 31 32 33 33 33 34 36 35 35 35 35 35 35 35 36
22 24 27 30 32 34 35 36 36 37 38 38 38 41 47 51 53 54 51 45 39 33 31 32 26 20 24 29 28 28 28 27 26 25 23 22 22 23 23 22 22 22 23 25 26 28 30 30 27 24 22 22 22 22 24 24 23 23 23 24 25 25 25 27 29 29 27 26 27 28 28 30 32 34 35 34 33 33 33 34 33 33 35 36 39
15 17 21 24 27 30 32 34 36 36 37 39 37 37 42 49 54 53 47 42 38 32 29 30 27 23 28 31 28 29 30 29 27 26 24 23 22 23 24 23 24 25 25 26 26 26 27 25 21 19 20 21 22 23 24 24 23 23 24 25 24 24 26 27 28 26 24 24 26 27 28 31 32 34 35 34 33 32 30 30 31 32 34 36 37
9 11 15 19 21 25 28 31 33 34 35 37 37 36 39 44 51 51 42 36 37 32 27 28 29 28 30 30 30 32 32 29 28 26 24 23 23 24 25 26 27 27 26 26 26 25 24 22 19 20 21 21 22 23 24 23 23 24 24 24 23 24 26 27 27 27 25 24 25 27 28 31 32 32 31 30 29 27 25 27 30 31 30 31 32
5 6 9 13 16 19 23 26 29 31 33 34 34 35 38 43 50 50 42 38 40 36 29 30 33 31 30 32 34 33 30 28 27 26 26 26 25 25 27 28 28 28 28 28 26 23 22 20 20 22 22 23 23 23 23 23 23 24 23 23 23 25 25 23 21 23 25 25 25 26 27 28 28 27 26 23 22 22 24 28 30 28 26 27 30
1 3 6 9 12 15 19 22 25 27 29 31 32 33 36 41 45 46 44 42 41 37 33 36 38 35 33 35 33 31 29 28 28 29 30 29 27 27 28 28 27 28 29 26 22 21 21 20 21 23 23 24 24 23 23 23 23 23 23 23 24 24 22 18 17 20 24 26 26 25 25 23 23 22 20 19 19 21 24 27 27 26 26 29 32
1 2 5 7 10 13 16 19 21 24 26 28 28 30 33 36 36 38 40 38 36 36 37 39 40 35 32 31 31 30 29 28 29 31 31 28 27 28 29 28 27 28 27 23 20 19 20 21 22 24 25 25 24 23 23 22 21 21 22 22 23 22 19 19 22 24 24 24 24 23 21 19 19 19 19 19 21 22 23 24 25 26 30 34 36
2 2 4 6 9 11 13 16 19 23 24 25 26 28 32 33 33 34 34 33 32 34 36 36 34 30 28 29 30 29 28 28 29 29 27 26 27 28 29 28 27 26 23 19 18 19 21 22 25 26 25 25 24 23 22 21 21 21 21 21 22 21 20 22 24 24 23 23 22 21 19 19 19 20 21 23 23 23 23 23 25 28 31 35 38
1 2 4 6 7 8 10 14 18 20 21 21 24 26 27 29 30 32 33 32 31 33 33 31 28 26 25 26 27 26 27 29 28 25 24 25 26 28 29 27 23 19 18 17 18 20 22 25 27 26 25 23 22 22 21 20 20 20 20 21 21 21 21 22 22 22 22 22 21 21 21 20 20 22 24 25 25 24 24 25 27 29 32 34 37
1 3 4 5 5 5 8 12 14 16 17 19 21 21 21 24 29 33 33 31 30 31 31 27 23 23 22 23 23 23 24 25 24 22 21 22 23 25 25 21 16 15 17 19 21 23 25 26 27 26 24 22 22 21 21 20 20 20 20 20 20 19 19 20 20 21 21 21 22 24 23 21 22 25 26 26 26 25 25 27 29 31 33 34 34
3 4 4 4 3 4 7 9 10 11 14 17 19 19 20 25 30 30 29 30 30 29 24 20 19 20 20 20 21 22 21 19 19 19 19 19 19 19 18 16 14 16 19 22 24 25 25 26 25 24 23 22 22 21 20 20 19 19 19 19 18 17 18 19 20 20 21 22 24 25 24 22 22 25 25 24 25 26 27 30 32 33 35 35 33
4 4 4 3 3 4 5 6 7 9 11 14 18 20 24 29 31 29 27 28 27 23 18 18 19 20 18 17 18 18 17 16 17 19 18 16 15 16 15 15 15 18 21 23 24 24 24 24 24 23 22 22 21 19 19 19 18 18 18 17 17 17 18 18 19 21 23 24 24 24 22 21 22 23 24 24 26 28 30 33 34 35 35 33 33
3 3 3 3 3 4 5 6 7 8 10 14 17 20 24 26 26 26 26 24 21 18 17 18 18 17 15 14 14 15 16 16 17 17 15 14 14 14 14 15 17 20 22 23 23 22 22 23 23 22 21 19 18 18 18 18 18 17 17 17 17 18 18 18 19 21 23 23 22 22 21 20 21 22 24 26 28 30 33 34 35 34 31 31 31
2 1 3 3 3 5 7 8 8 8 11 14 15 19 23 23 21 23 23 20 17 16 15 14 14 13 13 14 14 15 15 15 15 14 13 14 14 14 14 16 19 20 21 21 21 20 21 21 21 20 18 17 17 17 17 17 17 17 16 17 17 18 18 19 19 20 21 21 20 20 20 20 22 24 26 29 30 31 32 32 32 31 28 29 30
1 3 4 4 4 6 8 9 10 11 13 14 14 16 21 22 21 21 20 18 17 16 14 14 14 14 14 15 14 12 12 14 15 14 13 13 13 13 15 16 17 19 19 19 19 19 19 19 18 17 16 16 16 15 15 15 15 16 16 17 17 17 18 19 19 19 20 20 19 20 21 22 25 27 28 30 30 29 28 29 29 29 27 28 29
4 5 5 4 4 7 9 10 12 14 16 16 15 15 17 20 20 20 20 19 17 16 14 14 14 14 13 12 11 11 12 14 15 14 13 13 12 13 14 15 16 17 18 18 17 17 18 17 17 16 16 14 13 13 14 14 14 15 15 16 16 17 17 18 18 18 18 19 20 22 24 25 27 28 28 28 27 26 26 26 27 27 26 26 27
6 5 5 4 5 7 9 11 14 16 18 19 17 13 14 18 19 19 19 19 17 15 12 11 11 10 9 8 9 11 12 14 14 13 12 12 12 13 14 15 16 17 17 17 16 16 17 16 15 14 12 10 9 10 12 14 13 14 14 14 15 16 17 17 17 17 18 19 22 24 25 26 26 25 25 25 24 24 24 24 25 26 25 25 25
6 5 5 5 5 6 8 11 15 17 19 20 17 14 14 17 20 20 20 18 16 14 10 9 9 8 8 9 10 11 13 14 13 12 12 12 13 14 15 15 15 15 15 15 14 14 15 13 11 9 8 7 7 8 10 12 12 12 13 14 15 16 17 17 18 19 20 22 23 23 23 23 22 22 22 23 23 23 23 22 23 23 23 24 24
7 7 7 6 6 6 8 10 13 17 19 19 17 15 16 20 22 20 17 13 12 10 9 9 10 10 11 11 12 13 14 14 13 13 13 13 14 15 15 14 13 13 13 13 12 12 11 8 7 7 7 7 8 9 10 10 11 11 12 13 15 17 18 18 19 20 22 21 20 19 19 19 19 20 21 22 23 23 22 22 21 21 21 22 24
8 9 10 9 7 8 9 9 11 15 18 19 17 15 17 22 22 16 11 9 8 9 10 11 12 12 13 13 13 14 14 14 14 14 13 13 14 15 14 13 12 12 12 10 10 9 7 6 7 8 7 8 9 10 10 10 10 11 13 14 16 17 17 18 20 21 20 17 15 15 15 16 17 18 20 22 22 22 22 21 21 21 21 21 23
9 9 10 9 7 7 8 8 9 11 14 17 16 15 18 22 22 16 11 9 9 9 10 12 13 13 14 14 14 14 14 14 14 14 13 14 14 14 12 11 11 10 9 8 8 7 6 7 8 8 8 9 9 10 10 9 10 12 14 15 16 16 17 19 19 17 15 13 12 13 14 15 16 18 20 21 22 22 22 22 22 21 21 22 23
9 8 7 6 5 5 6 8 9 9 11 14 16 16 17 18 18 17 15 13 12 11 11 12 13 14 15 15 15 15 15 14 14 14 13 14 14 12 10 9 9 8 7 7 7 6 6 7 8 9 10 10 9 9 10 10 11 13 14 14 15 16 17 17 15 12 11 10 11 12 13 14 16 18 20 21 21 21 22 23 22 22 22 22 24
9 7 6 4 3 4 6 8 9 10 11 13 14 15 15 15 16 16 15 13 12 11 10 10 12 13 14 15 16 16 15 14 13 13 13 12 11 9 7 7 7 7 7 7 6 6 6 7 7 8 10 10 9 10 10 11 12 13 13 14 15 16 15 12 9 9 9 9 10 12 13 14 16 18 19 20 21 22 23 23 22 22 23 23 23
8 7 6 5 4 5 7 9 9 10 11 12 13 14 14 14 14 13 12 11 10 9 8 9 10 12 14 16 16 16 15 13 12 11 11 10 8 6 6 6 6 6 6 6 6 6 6 7 7 8 10 10 10 10 10 11 12 12 13 14 14 12 9 7 7 7 8 9 10 12 13 14 16 17 18 19 20 20 22 22 21 21 23 23 22
6 7 8 8 8 8 9 11 11 12 13 14 14 13 12 11 10 9 8 8 8 8 9 10 12 14 16 16 16 15 14 12 11 10 9 8 6 5 4 4 5 6 6 7 6 6 6 7 8 9 10 10 10 11 11 11 11 12 13 13 10 7 6 5 6 7 8 9 11 12 13 14 15 17 18 18 19 19 20 21 20 20 22 23 22
6 8 10 10 9 9 11 12 13 13 13 12 10 8 7 6 6 5 6 6 7 9 10 12 13 15 16 16 16 15 13 12 10 9 8 6 4 4 4 4 5 6 7 7 7 6 7 8 9 9 10 11 11 11 11 11 12 12 12 9 6 5 5 5 6 7 9 10 11 12 13 14 15 16 17 17 18 19 19 20 20 20 21 22 22
11 11 10 9 9 9 10 10 10 10 8 7 5 4 4 3 3 4 6 7 8 10 11 12 14 15 16 16 15 14 13 11 9 8 7 5 4 4 4 5 6 8 8 9 8 8 8 9 10 10 11 11 12 12 12 12 12 11 8 5 4 4 5 5 6 7 9 10 11 12 13 14 15 16 17 17 17 17 18 19 20 20 20 21 21
13 12 11 10 9 9 9 9 8 7 6 5 4 3 3 3 3 4 6 8 10 11 13 14 14 15 15 15 15 13 11 9 8 8 8 6 5 5 6 7 8 9 10 10 9 8 8 9 10 10 10 11 11 12 12 12 10 8 5 3 2 4 4 5 6 7 8 10 11 12 13 14 15 16 16 16 15 16 17 18 19 19 19 20 21
13 13 12 9 8 7 6 5 4 4 3 3 2 2 3 3 3 4 6 9 11 13 14 14 13 11 12 14 13 10 8 8 9 9 9 7 7 7 8 9 10 11 11 10 9 8 8 9 9 9 9 10 11 11 11 9 7 4 2 2 2 3 4 5 6 7 8 10 11 12 13 14 15 16 16 16 15 16 17 18 18 18 18 18 20
14 14 11 8 6 5 4 4 5 5 4 4 4 5 5 5 6 8 10 12 13 14 14 13 11 9 10 12 12 10 9 9 10 10 9 9 9 9 9 11 11 11 10 9 8 8 8 8 8 8 8 9 10 10 8 6 4 3 1 1 2 3 4 5 6 7 8 9 10 12 13 13 14 15 16 16 16 16 16 16 17 17 17 17 18
13 13 11 9 7 6 6 6 7 6 6 6 7 7 8 9 11 13 14 15 14 13 10 10 9 8 10 11 11 10 10 10 11 11 11 10 10 10 11 12 12 11 9 8 8 8 8 8 8 8 8 9 9 8 6 4 3 2 1 2 3 3 4 6 6 7 8 9 10 11 12 13 13 14 15 15 15 16 16 16 16 17 17 17 17
12 11 10 8 7 6 7 8 9 8 8 8 9 11 12 13 14 13 12 10 10 8 6 6 7 8 9 10 10 10 10 11 12 12 12 12 11 11 11 12 12 10 8 7 7 8 8 7 8 8 9 9 8 6 5 4 3 2 2 2 3 4 5 6 7 8 9 10 11 11 12 12 12 13 14 14 15 16 17 16 16 16 16 16 17
9 8 6 5 5 6 8 9 9 9 9 10 11 12 12 11 10 9 7 6 5 5 6 6 7 8 9 9 10 10 11 12 12 13 13 13 12 11 11 12 11 9 7 7 7 7 8 8 8 8 9 8 6 5 4 3 3 3 3 4 4 5 6 6 7 9 10 10 11 11 12 12 12 12 13 14 14 16 16 16 15 16 17 16 16
5 4 6 7 7 8 9 9 9 10 11 11 10 8 7 6 6 7 7 6 5 5 5 6 8 9 10 11 12 12 12 12 13 13 13 13 12 12 11 11 9 8 7 7 8 8 8 9 8 8 8 7 6 5 4 4 3 4 4 5 6 6 7 7 8 9 10 11 11 11 11 11 10 11 12 13 13 14 15 15 15 15 15 16 16
5 7 9 9 9 9 10 10 10 9 8 6 5 4 3 4 5 6 6 6 5 4 5 6 7 8 10 11 13 13 13 13 13 13 13 12 11 11 10 9 8 7 7 8 9 9 9 9 9 9 8 7 6 5 5 4 4 5 5 6 7 7 8 9 9 9 10 10 10 10 10 10 9 9 10 11 12 13 14 14 14 14 14 14 15
7 9 9 9 9 10 9 8 6 5 3 2 2 3 3 4 5 5 5 5 5 5 5 6 7 8 10 11 12 13 13 13 13 13 13 12 11 9 8 7 7 7 8 9 9 9 9 9 9 9 8 7 6 6 5 4 4 5 6 7 8 8 9 9 10 10 10 10 10 10 9 9 8 8 9 10 11 12 13 13 13 14 14 13 13
8 9 9 9 9 8 7 5 4 4 3 2 3 4 5 5 5 6 6 6 5 5 6 6 7 8 9 10 11 11 12 13 14 14 13 12 10 9 8 7 7 7 8 9 10 9 9 9 9 8 8 7 6 6 5 5 5 6 6 7 8 9 10 10 10 10 9 9 8 8 8 7 6 6 8 10 10 10 11 12 12 13 14 13 13
7 7 8 9 8 8 7 6 6 5 5 4 5 5 6 6 6 7 8 8 7 6 7 8 8 7 8 9 10 11 11 12 13 13 12 12 11 10 9 8 8 8 8 9 9 9 9 9 9 8 8 7 7 6 5 5 5 6 6 8 9 10 10 10 10 9 8 8 7 7 7 6 5 5 6 8 9 9 10 11 12 12 13 13 13
8 9 9 9 8 7 7 6 5 5 5 5 5 6 7 7 7 8 10 10 10 10 11 12 12 11 10 9 10 11 12 13 13 13 13 13 12 11 10 9 9 8 8 9 9 9 9 9 9 9 8 8 7 6 5 5 5 6 7 8 9 10 10 10 8 7 7 7 6 6 5 5 4 4 4 6 8 8 8 10 11 12 11 11 12
Wind_Direction
232 233 233 234 234 233 233 232 232 233 232 232 233 235 236 239 246 250 249 247 249 250 250 248 247 247 243 236 233 234 235 234 235 237 241 245 244 242 244 248 253 255 256 259 261 265 270 273 275 279 282 285 288 291 291 292 291 289 288 288 288 288 290 289 286 291 298 299 299 304 307 306 304 303 306 308 308 308 307 305 303 301 299 299 301
233 234 235 235 235 235 234 233 233 234 234 234 235 236 236 237 240 244 248 250 252 253 253 250 247 245 240 234 232 234 234 235 236 239 245 248 247 245 247 249 249 250 254 260 266 270 273 275 278 280 282 283 289 295 296 296 293 291 291 290 291 291 291 292 290 289 294 299 301 302 304 306 307 307 306 306 307 308 308 306 304 302 300 299 300
235 236 236 237 237 237 237 237 236 236 237 238 239 237 235 234 235 238 242 247 252 254 252 249 247 245 239 234 232 233 234 233 236 241 247 250 249 247 247 247 247 252 258 263 267 269 271 275 278 279 282 288 295 299 299 298 295 293 292 292 293 294 294 294 293 290 292 297 300 301 301 302 304 306 305 304 305 307 307 305 303 301 301 301 299
237 238 239 239 239 239 240 240 238 238 239 241 241 239 237 236 237 238 240 244 249 252 251 248 246 243 238 235 233 231 232 233 236 243 248 250 250 248 245 246 249 254 260 262 263 265 269 274 276 278 284 293 300 301 299 298 296 295 295 294 295 297 298 297 295 294 292 293 297 300 301 300 299 302 305 305 305 308 308 306 304 303 302 301 298
239 240 240 241 242 243 242 240 238 237 238 240 240 239 237 238 239 239 240 243 249 252 250 246 243 239 236 235 234 231 231 233 237 243 250 252 251 248 246 247 252 256 259 261 261 263 267 271 275 279 288 294 298 299 297 296 295 294 294 295 295 296 297 297 296 296 294 293 294 297 300 300 298 299 304 304 305 308 310 309 308 307 303 300 298
240 241 241 242 244 243 240 238 237 235 235 238 239 238 236 237 238 239 241 243 246 250 251 246 240 238 237 234 232 232 232 234 238 242 249 252 251 250 249 249 253 257 261 262 263 264 265 270 277 282 287 293 297 298 298 297 296 296 296 296 296 295 295 295 296 296 297 296 295 295 298 300 299 297 298 299 301 307 310 310 309 308 304 300 299
243 243 243 243 242 240 239 241 240 234 231 233 235 234 234 235 232 232 237 240 238 241 247 247 241 237 237 235 232 232 233 236 238 242 246 250 252 253 252 251 253 257 260 262 262 263 266 270 277 283 287 292 296 299 300 299 299 299 299 299 297 295 294 295 295 295 297 296 294 295 297 299 300 298 299 301 303 306 309 310 307 304 301 298 299
246 246 245 242 240 241 243 246 244 236 231 230 233 234 232 232 231 229 232 235 234 235 240 242 242 239 236 235 234 234 236 238 239 242 246 250 254 255 254 253 254 256 259 261 262 263 266 272 278 284 289 292 296 300 301 301 300 301 302 300 299 297 295 295 295 294 295 295 294 296 298 299 300 300 301 303 303 304 306 305 302 301 300 296 295
248 248 245 243 244 246 248 248 248 244 233 228 233 238 233 232 233 231 231 233 232 234 235 231 234 240 238 236 236 235 237 239 241 243 248 252 255 257 256 253 253 256 259 261 264 266 270 277 282 288 292 295 298 302 304 304 301 301 301 300 299 298 297 295 294 294 294 294 294 296 297 296 297 299 300 299 300 302 303 302 300 301 301 298 296
250 248 247 247 249 250 251 252 252 248 235 223 227 236 237 238 239 234 232 233 231 231 230 225 228 237 238 238 238 238 239 242 244 246 250 254 257 257 254 252 252 256 259 262 266 270 274 279 285 290 293 296 300 305 306 305 303 301 300 299 298 297 296 295 294 293 293 293 294 295 295 294 295 297 297 297 299 301 302 302 301 301 301 300 299
252 250 248 250 251 251 253 253 254 252 238 220 219 228 232 235 241 238 232 232 231 226 223 221 227 233 235 238 241 242 244 245 248 251 253 255 257 254 251 252 254 257 261 265 268 271 275 280 284 286 289 294 299 303 304 304 302 300 298 298 298 297 295 293 292 292 291 290 291 293 292 291 293 295 296 297 299 301 301 301 300 301 301 300 299
256 253 250 250 252 253 254 257 257 251 233 210 213 226 229 229 235 236 231 229 230 225 220 220 224 229 233 239 243 246 248 250 251 254 254 254 255 252 250 253 257 262 268 272 275 278 278 276 276 279 283 290 296 298 301 302 299 297 297 298 300 299 295 293 292 290 288 286 287 288 289 290 292 294 296 299 301 302 302 300 300 299 298 298 298
259 256 252 252 254 257 257 256 252 246 237 227 225 227 228 228 231 232 229 227 226 222 217 215 219 225 230 235 242 248 252 253 253 255 255 253 252 251 252 255 261 266 273 277 281 284 283 280 280 280 282 288 293 296 299 300 298 295 295 298 300 299 296 294 292 289 287 285 283 285 288 291 293 294 297 300 302 302 301 300 299 297 295 296 296
259 258 255 255 257 258 257 253 251 253 254 251 241 230 228 228 228 228 227 224 220 216 212 212 217 224 225 228 239 247 248 250 253 255 257 255 252 251 253 257 263 268 273 278 281 284 285 287 288 285 283 286 291 295 297 298 297 295 296 299 299 298 297 296 295 294 293 291 288 288 290 291 293 296 298 301 301 299 299 299 297 295 296 298 299
258 260 257 257 258 258 257 255 257 260 260 256 249 241 235 230 224 223 222 217 212 209 210 214 218 221 219 223 233 240 241 248 254 256 256 255 252 251 254 257 263 268 273 279 284 284 284 285 284 282 283 286 290 294 295 296 296 296 298 299 298 297 297 296 296 295 293 291 290 290 291 292 293 296 299 300 299 297 297 297 297 298 301 302 302
253 256 256 257 259 259 260 260 259 260 260 257 253 248 241 231 224 222 218 212 209 208 209 213 215 218 220 221 225 231 238 249 254 252 253 255 253 252 255 260 264 269 274 281 284 283 282 282 282 283 285 288 290 293 294 294 296 298 298 298 297 298 298 297 296 295 293 290 289 289 290 293 294 296 298 298 297 298 299 299 302 305 304 302 302
238 247 253 258 261 262 264 264 263 262 261 260 259 255 244 229 222 220 216 211 212 212 212 211 210 214 220 219 220 228 239 247 247 247 252 256 256 257 261 265 269 272 278 282 281 278 278 280 282 284 286 289 292 293 293 294 297 298 297 297 299 300 299 298 296 296 298 298 296 295 295 296 296 297 297 295 295 301 305 305 307 308 305 302 302
213 251 258 261 267 269 268 268 269 268 264 261 259 252 236 221 215 214 213 213 214 216 217 214 208 209 214 217 221 233 242 244 245 252 256 255 256 261 264 266 271 277 282 282 277 275 277 279 281 285 288 291 293 293 294 296 297 296 296 298 301 300 299 297 295 297 301 303 303 304 304 303 301 300 298 297 299 305 307 307 310 309 306 306 306
193 255 268 272 274 272 272 274 271 265 260 257 252 239 224 215 212 211 213 216 217 217 215 210 205 206 213 220 226 235 240 242 248 256 259 256 257 263 264 266 274 281 282 279 275 275 278 280 284 287 289 291 292 293 294 295 294 295 298 300 300 299 298 297 299 301 303 306 308 311 311 308 306 306 306 306 306 306 304 306 311 312 311 312 312
219 262 277 283 281 277 278 276 266 258 256 257 252 237 222 216 216 215 212 210 210 209 205 203 205 213 222 226 230 238 247 253 257 259 259 257 260 262 264 269 278 280 275 272 274 279 282 285 287 288 289 290 292 293 293 293 294 297 299 299 298 297 296 297 300 304 307 309 311 313 315 312 310 311 312 310 308 307 304 305 310 313 314 313 312
239 282 294 296 293 290 282 269 259 257 259 259 250 233 219 215 215 211 205 203 202 201 201 204 213 225 232 234 239 250 261 268 272 268 262 262 263 263 266 273 277 272 268 273 280 283 286 287 287 287 288 289 291 291 291 293 296 299 300 298 296 295 297 300 304 307 311 312 314 316 317 314 312 312 311 309 308 307 305 306 309 311 313 312 311
251 286 302 305 298 284 272 264 258 255 256 252 238 220 209 210 209 205 202 201 199 199 204 212 224 234 241 245 252 261 265 270 273 267 259 263 266 266 269 274 272 269 274 282 285 286 286 285 284 285 287 288 288 289 291 295 299 300 299 297 296 298 302 306 308 309 311 313 313 315 315 313 311 312 310 308 307 306 305 307 308 309 311 310 310
277 290 294 292 282 266 261 258 252 247 246 238 224 209 202 201 200 200 202 201 198 201 211 227 241 247 251 253 256 261 268 274 271 263 261 265 266 264 266 267 269 277 283 286 286 285 283 282 282 284 285 286 287 288 292 297 300 298 297 297 301 305 308 310 310 310 310 311 312 314 315 314 314 314 312 310 309 308 308 308 308 309 310 309 309
287 292 283 265 249 245 247 240 232 235 231 217 209 210 207 200 197 200 202 200 200 209 225 240 248 250 250 249 250 259 273 277 269 264 265 264 257 255 258 266 276 284 285 284 283 281 280 280 281 282 283 284 286 290 295 298 297 296 299 303 308 312 312 311 311 310 311 313 315 316 318 318 316 315 315 314 312 311 311 310 309 310 310 309 309
304 292 257 233 222 222 223 217 215 221 215 202 203 209 205 196 196 202 201 198 206 222 236 241 241 240 242 245 252 266 277 275 265 261 255 247 246 253 264 275 284 285 283 282 280 278 278 277 278 279 281 284 289 293 296 296 297 300 306 310 312 313 313 312 311 311 313 315 316 317 319 320 318 317 316 316 315 315 314 313 312 312 312 311 312
318 252 206 195 193 203 208 206 201 204 208 208 211 213 206 196 194 197 197 202 215 225 229 227 223 224 235 247 259 269 273 266 256 245 235 236 248 263 274 281 285 284 283 282 279 277 276 275 276 279 283 287 292 294 295 297 301 306 310 311 312 312 312 312 312 313 315 315 316 319 320 320 318 318 317 318 318 318 317 317 316 315 317 318 318
235 184 182 173 178 195 203 203 198 198 202 201 196 199 201 199 197 197 202 208 211 206 203 204 209 222 240 253 261 261 255 245 235 226 227 241 257 270 279 285 287 286 284 281 278 276 275 274 276 280 285 290 291 291 294 299 304 308 309 310 310 310 311 313 315 316 316 317 319 321 322 321 320 319 320 320 321 322 321 321 321 321 322 323 323
165 166 161 151 176 195 201 205 204 201 197 188 180 183 191 194 199 204 205 204 200 196 200 210 222 235 246 252 253 248 239 228 220 220 233 249 265 277 286 290 289 286 282 280 277 275 275 277 280 284 287 289 288 290 297 301 304 306 306 307 308 309 311 314 316 317 318 320 322 323 323 323 321 321 322 324 324 325 326 326 325 324 325 327 328
147 151 145 153 186 202 206 210 212 208 198 190 190 200 202 198 199 200 197 197 202 208 216 227 232 235 235 232 237 241 234 221 218 228 244 257 273 286 291 291 287 282 279 277 275 275 277 280 284 285 285 285 284 290 299 303 305 306 305 304 307 310 314 316 317 318 319 321 323 324 323 322 323 324 327 328 328 329 331 331 330 328 328 330 333
135 140 142 158 182 201 210 214 217 215 209 206 212 228 221 201 193 191 192 200 214 224 230 227 215 211 217 225 229 228 222 220 226 239 252 265 280 289 291 288 283 277 275 274 274 275 278 279 278 277 276 276 277 281 289 298 303 303 302 304 308 311 314 315 315 316 318 320 321 322 322 324 327 331 334 335 333 333 335 337 337 334 332 334 338
124 132 139 148 164 187 203 212 215 213 214 220 229 233 216 195 188 191 200 216 230 233 227 217 209 212 224 229 228 222 221 227 236 245 255 270 282 288 288 285 278 273 272 274 274 274 273 268 262 263 266 268 271 276 284 293 297 298 301 306 310 311 312 313 314 316 319 320 321 323 326 331 336 340 343 342 340 339 340 343 344 340 337 338 340
115 130 140 147 161 183 193 204 212 213 217 223 227 222 205 195 196 205 225 246 243 230 222 219 218 223 230 233 233 230 229 235 242 248 259 274 283 287 287 281 274 272 273 274 272 268 260 252 252 258 263 266 272 280 287 292 294 297 301 306 309 310 310 312 315 318 320 321 324 330 336 341 345 348 349 348 345 345 346 348 349 346 342 341 341
121 137 147 152 163 182 189 197 208 218 224 222 215 209 205 205 211 227 254 263 249 235 230 227 227 232 236 237 237 234 235 241 247 253 265 277 284 287 285 276 269 268 269 270 268 260 252 252 251 255 264 270 277 284 288 289 294 299 303 305 306 308 310 314 318 321 324 328 334 340 345 349 352 352 351 351 350 350 351 354 354 351 346 343 343
134 144 151 154 165 184 192 197 202 211 220 217 209 207 212 217 228 247 263 264 254 245 241 240 240 241 240 238 238 240 243 247 252 258 269 279 284 286 279 269 265 265 266 270 264 252 254 258 256 261 271 277 282 285 286 290 295 300 303 305 308 311 314 318 323 327 331 337 343 348 349 351 354 353 351 352 354 354 356 359 358 354 350 347 345
149 160 167 170 188 203 202 202 202 204 208 210 212 220 231 240 248 255 258 257 252 249 250 253 251 248 246 245 245 247 247 249 252 261 272 278 282 280 269 262 267 273 278 278 265 249 249 252 254 265 276 281 282 283 285 291 296 299 302 307 312 315 318 324 331 335 338 345 350 351 351 352 354 353 351 353 356 357 359 1 360 357 354 350 347
159 177 192 207 233 233 216 209 208 210 213 219 228 235 241 244 246 245 244 244 242 238 238 242 245 248 251 252 248 244 242 245 251 262 269 272 272 267 258 262 276 283 283 277 266 256 253 253 258 269 278 282 283 284 288 293 295 298 304 310 315 318 324 335 342 342 346 352 352 353 354 353 353 354 353 354 357 358 359 1 3 1 359 354 351
178 204 221 237 247 236 218 210 211 215 220 224 229 230 231 231 233 233 233 231 227 228 235 242 248 253 255 252 245 237 236 241 248 255 259 259 255 249 249 264 279 281 276 270 262 254 251 256 265 274 280 283 284 287 291 293 294 300 307 313 317 324 335 348 351 349 355 358 357 357 357 355 354 355 354 355 357 358 360 3 3 4 4 2 359
222 231 231 235 231 213 200 198 202 208 214 216 215 215 216 219 222 224 223 218 219 233 248 254 257 261 259 250 239 231 229 234 240 243 245 244 239 238 253 273 281 280 277 271 261 254 254 261 270 277 281 284 286 288 291 293 296 303 310 313 320 337 350 357 358 359 1 2 2 1 358 356 356 357 356 357 358 357 0 4 4 4 7 6 4
245 238 220 208 196 181 174 176 182 189 193 192 187 186 191 199 208 214 218 222 233 249 259 261 263 265 258 244 234 231 231 230 229 228 229 232 235 246 267 284 289 287 281 272 266 262 262 266 274 280 283 284 285 286 289 292 297 303 307 310 328 352 359 1 2 2 3 3 4 2 359 358 359 359 358 360 359 357 0 5 5 5 7 8 7
242 221 196 179 170 162 157 158 163 167 170 173 176 184 196 211 224 231 237 245 255 265 269 269 269 266 252 236 230 233 233 228 222 220 222 232 251 267 280 290 294 293 285 276 271 267 266 270 278 283 283 284 285 287 290 292 295 296 297 306 342 355 358 0 360 360 2 4 3 2 359 358 360 1 0 360 0 2 4 6 6 6 7 9 10
218 196 181 170 163 158 154 159 172 186 197 203 214 228 240 248 255 260 263 266 271 276 278 275 273 266 247 233 227 224 221 222 223 225 230 244 264 277 287 294 298 296 287 278 272 268 270 277 283 284 284 287 291 293 293 291 286 280 283 317 346 348 351 355 353 354 360 2 1 1 0 359 1 3 1 0 4 8 7 5 5 6 7 8 10
194 181 172 166 171 187 207 224 231 233 235 240 246 253 261 270 277 281 282 281 281 281 278 273 270 257 234 224 219 213 214 222 230 234 240 251 265 277 287 294 298 294 283 274 269 267 270 278 283 282 285 291 295 295 291 283 269 256 271 324 339 340 345 347 345 348 355 359 359 359 359 359 2 4 1 2 7 11 10 7 7 6 7 9 11
184 175 171 173 181 196 217 230 234 234 236 243 251 259 269 279 285 287 286 282 279 277 272 268 263 242 217 210 214 217 222 228 234 237 240 247 260 274 284 292 294 287 273 263 262 263 267 273 275 278 285 291 294 291 279 263 252 248 276 317 327 331 335 336 337 342 348 352 355 356 356 357 2 4 2 4 9 12 12 12 10 8 8 10 13
178 174 172 174 181 202 226 235 238 241 245 253 263 272 280 286 287 284 279 275 270 265 257 254 245 222 206 208 218 224 230 236 240 240 240 245 257 272 284 291 289 278 261 254 257 257 257 259 263 273 285 289 286 276 260 245 245 259 284 302 311 317 322 326 330 336 340 342 345 348 349 353 359 3 4 7 11 13 14 14 13 12 12 11 12
171 177 188 198 213 234 243 243 247 255 262 270 277 281 284 285 281 273 265 260 256 250 243 240 233 220 214 220 227 230 236 242 243 242 243 248 259 272 281 284 280 267 253 252 253 248 246 250 259 272 282 281 272 260 249 245 254 272 285 295 301 306 314 320 324 328 330 331 334 337 340 347 355 1 5 10 13 14 14 16 17 18 17 15 14
169 214 229 225 228 239 246 252 260 267 271 274 278 279 277 271 264 263 261 256 250 246 242 239 236 232 231 233 236 238 241 243 242 243 244 249 258 268 275 277 275 269 259 254 248 241 240 247 258 270 274 268 258 251 248 251 264 276 285 293 298 303 309 313 316 318 318 319 323 327 331 340 351 359 6 13 17 16 15 19 22 22 21 18 15
224 228 221 216 224 239 249 256 261 263 264 264 263 262 265 264 260 260 259 256 256 258 255 251 249 245 242 241 242 243 243 241 240 240 240 243 252 263 271 278 281 276 265 252 241 236 238 246 256 266 266 257 248 246 249 257 269 277 284 292 297 302 304 305 305 306 307 308 312 316 322 333 348 0 8 16 20 18 17 19 23 26 26 22 16
190 194 204 216 229 238 243 245 241 236 236 245 254 263 271 267 259 256 258 259 260 259 257 258 258 254 251 249 247 244 240 237 235 234 236 241 249 259 269 282 291 285 269 249 233 229 236 245 252 260 260 251 245 245 248 257 270 278 286 294 297 298 298 297 295 294 295 297 301 307 315 328 343 357 10 18 22 21 19 18 20 25 29 27 21
174 187 201 211 213 210 204 196 190 194 205 224 242 256 264 265 265 266 265 263 262 262 262 263 264 262 261 257 248 240 234 232 231 231 233 239 247 256 267 285 299 291 269 245 227 225 235 243 249 257 258 250 242 242 247 259 273 282 288 294 297 297 295 292 287 283 281 283 289 299 310 324 337 353 9 20 23 22 20 19 21 25 28 30 31
183 187 188 186 183 181 180 182 189 202 217 226 235 249 259 263 266 267 266 266 269 269 268 268 269 268 267 262 252 241 233 229 229 232 235 240 247 256 268 284 294 286 261 234 221 224 236 243 250 257 256 247 242 242 247 257 271 282 289 295 297 297 295 291 283 273 267 270 279 289 301 315 329 345 6 20 26 25 22 24 26 25 25 29 35
172 170 169 169 171 176 181 188 199 212 225 235 242 253 262 267 271 274 275 275 275 273 269 268 267 264 262 261 258 250 241 236 235 237 240 243 247 254 266 280 286 278 255 230 221 227 240 249 254 257 255 248 242 240 244 256 271 282 291 297 297 297 297 292 279 259 250 254 265 279 289 301 316 336 1 19 28 28 26 28 31 29 24 26 34